KC7NGC-B Weather Reports


time (UTC)temp
F
wind
direction
speed
knots
gust
knots
rain 1hr
in
rain 24hr
in
rain mn
in
humidity
%
barometer
mb
20240222114543 42 225 5.2 7.0 0.00 0.00 0.00 85 1025.9
20240222113521 42 217 7.0 10.4 0.00 0.00 0.00 85 1025.8
20240222112518 42 217 4.3 7.0 0.00 0.00 0.00 85 1025.8
20240222111516 42 210 6.1 8.7 0.00 0.00 0.00 84 1025.7
20240222110534 42 215 8.7 11.3 0.00 0.00 0.00 84 1025.4
20240222105532 43 210 7.8 9.6 0.00 0.00 0.00 82 1025.4
20240222104530 43 208 7.8 11.3 0.00 0.00 0.00 82 1025.5
20240222103527 43 204 7.8 11.3 0.00 0.00 0.00 82 1025.3
20240222102525 44 209 7.0 11.3 0.00 0.00 0.00 82 1025.1
20240222101524 44 214 7.8 10.4 0.00 0.00 0.00 81 1025.1
20240222100520 44 211 6.1 9.6 0.00 0.00 0.00 81 1025.0
20240222095518 44 209 6.1 8.7 0.00 0.00 0.00 81 1025.0
20240222094516 44 213 6.1 8.7 0.00 0.00 0.00 81 1024.9
20240222093533 44 215 6.1 9.6 0.00 0.00 0.00 81 1025.0
20240222092532 44 215 4.3 11.3 0.00 0.00 0.00 81 1025.0
20240222091529 44 223 4.3 6.1 0.00 0.00 0.00 83 1024.9
20240222090527 44 209 4.3 8.7 0.00 0.00 0.00 83 1024.8
20240222085525 44 213 6.1 9.6 0.00 0.00 0.00 83 1024.7
20240222084543 44 225 8.7 14.8 0.00 0.00 0.00 83 1024.7
20240222083520 44 203 7.8 10.4 0.00 0.00 0.00 83 1024.8
20240222082518 44 208 8.7 11.3 0.00 0.00 0.00 82 1024.6
20240222081517 44 208 10.4 13.0 0.00 0.00 0.00 82 1024.4
20240222080554 44 215 8.7 14.8 0.00 0.00 0.00 82 1024.5
20240222075531 44 212 6.1 9.6 0.00 0.00 0.00 83 1024.1
20240222074529 43 212 8.7 11.3 0.00 0.00 0.00 84 1024.3
20240222073527 43 273 3.5 8.7 0.00 0.00 0.00 86 1024.2
20240222072525 43 294 4.3 5.2 0.00 0.00 0.00 85 1024.2
20240222071522 44 228 4.3 9.6 0.00 0.00 0.00 84 1024.0
20240222070520 44 220 4.3 6.1 0.00 0.00 0.00 84 1024.0
20240222065518 44 320 5.2 8.7 0.00 0.00 0.00 84 1023.8
20240222064516 44 358 1.7 2.6 0.00 0.00 0.00 84 1023.8
20240222063533 44 330 5.2 7.8 0.00 0.00 0.00 84 1023.7
20240222062551 45 347 5.2 8.7 0.00 0.00 0.00 83 1023.7
20240222061530 44 1 5.2 6.1 0.00 0.00 0.00 85 1023.4
20240222060527 45 345 4.3 5.2 0.00 0.00 0.00 85 1023.4
20240222055524 45 326 1.7 2.6 0.00 0.00 0.00 84 1023.4
20240222054522 46 216 5.2 8.7 0.00 0.00 0.00 83 1023.1
20240222053520 46 202 5.2 7.8 0.00 0.00 0.00 82 1023.0
20240222052518 46 206 5.2 8.7 0.00 0.00 0.00 81 1022.8
20240222051516 47 198 6.1 9.6 0.00 0.00 0.00 81 1022.7
20240222050534 46 196 8.7 11.3 0.00 0.00 0.00 82 1022.6
20240222045531 47 209 4.3 7.0 0.00 0.00 0.00 83 1022.6
20240222044529 47 202 5.2 7.8 0.00 0.00 0.00 82 1022.2
20240222043527 47 211 7.0 11.3 0.00 0.00 0.00 82
20240222042524 47 201 5.2 7.8 0.00 0.00 0.00 83
20240222041523 47 203 6.1 9.6 0.00 0.00 0.00 82
20240222040520 47 203 6.1 9.6 0.00 0.00 0.00 82
20240222035518 46 201 6.1 9.6 0.00 0.00 0.00 83
20240222034616 46 186 5.2 8.7 0.00 0.00 0.00 83 1021.9
20240222033533 46 28 3.5 5.2 0.00 0.00 0.00 83 1021.6
20240222032530 46 37 2.6 4.3 0.00 0.00 0.00 83
20240222031529 47 231 6.1 8.7 0.00 0.00 0.00 80 1021.4
20240222030526 46 209 3.5 4.3 0.00 0.00 0.00 80 1021.1
20240222025524 45 221 5.2 7.8 0.00 0.00 0.00 82 1021.0
20240222024522 45 266 1.7 1.7 0.00 0.00 0.00 82 1021.0
20240222023520 45 169 2.6 3.5 0.00 0.00 0.00 81 1020.9
20240222022517 45 204 1.7 3.5 0.00 0.00 0.00 81 1020.8
20240222021535 46 164 1.7 1.7 0.00 0.00 0.00 80 1020.8
20240222020533 45 62 1.7 2.6 0.00 0.00 0.00 80 1020.8
20240222015530 46 0.0 0.9 0.00 0.00 0.00 78 1020.6
20240222014608 46 275 1.7 1.7 0.00 0.00 0.00 78 1020.5
20240222013526 47 338 1.7 2.6 0.00 0.00 0.00 75 1020.4
20240222012524 47 168 3.5 4.3 0.00 0.00 0.00 76 1020.2
20240222011602 48 182 1.7 1.7 0.00 0.00 0.00 75 1020.1
20240222010519 48 20 1.7 2.6 0.00 0.00 0.00 75 1019.9
20240222005537 49 201 1.7 2.6 0.00 0.00 0.00 73 1019.8
20240222004535 49 273 3.5 4.3 0.00 0.00 0.00 72 1019.6
20240222003533 49 180 2.6 5.2 0.00 0.00 0.00 72 1019.6
20240222002530 49 194 3.5 6.1 0.00 0.00 0.00 74 1019.5
20240222001528 48 196 6.1 9.6 0.00 0.00 0.00 76 1019.4
20240222000526 49 197 3.5 6.1 0.00 0.00 0.00 75 1019.2
20240221235523 50 204 5.2 10.4 0.00 0.00 0.00 71 1018.9
20240221234543 50 236 6.1 9.6 0.00 0.00 0.00 70 1019.1
20240221233521 51 212 4.3 5.2 0.00 0.00 0.00 69 1018.9
20240221232517 52 203 5.2 8.7 0.00 0.00 0.00 66 1018.8
20240221231555 52 254 2.6 7.0 0.00 0.00 0.00 66 1018.9
20240221230532 53 251 7.0 9.6 0.00 0.00 0.00 64 1018.9
20240221225530 53 263 4.3 7.8 0.00 0.00 0.00 65 1019.0
20240221224548 52 216 4.3 5.2 0.00 0.00 0.00 66 1018.8
20240221223546 52 276 4.3 8.7 0.00 0.00 0.00 66 1018.8
20240221222524 52 186 3.5 5.2 0.00 0.00 0.00 66 1018.9
20240221221521 51 309 3.5 4.3 0.00 0.00 0.00 70 1018.9
20240221220519 50 199 2.6 4.3 0.00 0.00 0.00 75 1018.9
20240221215557 50 173 1.7 3.5 0.00 0.00 0.00 74 1018.6
20240221214534 52 221 4.3 6.1 0.00 0.00 0.00 72 1018.8
20240221213532 49 328 2.6 3.5 0.00 0.00 0.00 76 1018.8
20240221212530 50 324 3.5 4.3 0.00 0.00 0.00 76 1018.6
20240221211529 50 24 1.7 2.6 0.00 0.00 0.00 74 1018.5
20240221210545 50 136 1.7 2.6 0.00 0.00 0.00 73 1018.4
20240221205523 49 150 2.6 4.3 0.00 0.00 0.00 74 1018.4
20240221204521 49 178 0.9 1.7 0.00 0.00 0.00 76 1018.3
20240221203518 49 0.0 1.7 0.00 0.00 0.00 75 1018.4
20240221202516 49 354 2.6 3.5 0.00 0.00 0.00 78 1018.3
20240221201535 49 17 2.6 4.3 0.00 0.00 0.00 76 1018.4
20240221200532 48 128 1.7 2.6 0.00 0.00 0.00 76 1018.5
20240221195549 48 36 2.6 3.5 0.00 0.00 0.00 78 1018.3
20240221194527 47 0.0 0.9 0.00 0.00 0.00 79 1018.2
20240221193545 47 79 1.7 2.6 0.00 0.00 0.00 81 1018.2
20240221192523 46 51 2.6 2.6 0.00 0.00 0.00 81 1018.4
20240221191541 46 214 1.7 2.6 0.00 0.00 0.00 80 1018.3
20240221190518 46 190 0.9 2.6 0.00 0.00 0.00 82 1018.2
20240221185516 45 209 1.7 1.7 0.00 0.00 0.00 83 1018.2
20240221184534 45 305 1.7 2.6 0.00 0.00 0.00 85 1018.1
20240221183532 45 286 3.5 5.2 0.00 0.00 0.00 86 1018.1
20240221182529 44 216 0.9 2.6 0.00 0.00 0.00 86 1017.9
20240221181608 44 188 1.7 4.3 0.00 0.00 0.00 85 1017.8
20240221180545 45 305 4.3 6.1 0.00 0.00 0.00 85 1017.9
20240221175522 44 216 1.7 3.5 0.00 0.00 0.00 86 1017.6
20240221174520 44 142 0.9 1.7 0.00 0.00 0.00 85 1017.5
20240221173518 44 184 2.6 4.3 0.00 0.00 0.00 86 1017.3
20240221172515 44 167 2.6 3.5 0.00 0.00 0.00 87 1017.4
20240221171553 43 215 0.9 1.7 0.00 0.00 0.00 87 1017.1
20240221170531 43 113 0.9 2.6 0.00 0.00 0.00 88 1017.1
20240221165529 43 205 0.9 1.7 0.00 0.00 0.00 88 1017.1
20240221164527 43 75 0.9 1.7 0.00 0.00 0.00 88 1016.8
20240221163525 42 203 0.0 1.7 0.00 0.00 0.00 90 1016.9
20240221162522 42 171 1.7 2.6 0.00 0.00 0.00 92 1016.8
20240221161520 42 0.0 0.9 0.00 0.00 0.00 90 1016.6
20240221160517 42 339 0.9 1.7 0.00 0.00 0.00 90 1016.5
20240221155536 41 314 0.9 1.7 0.00 0.00 0.00 91 1016.4
20240221154534 41 335 0.0 1.7 0.00 0.00 0.00 92 1016.4
20240221153531 41 175 0.0 1.7 0.00 0.00 0.00 91 1016.4
20240221152609 41 0.0 1.7 0.00 0.00 0.00 92 1016.3
20240221151526 41 190 1.7 1.7 0.00 0.00 0.00 92 1016.2
20240221150524 40 192 0.9 1.7 0.00 0.00 0.00 92 1016.0
20240221145521 40 0.0 1.7 0.00 0.00 0.00 94 1015.9
20240221144539 40 0.0 1.7 0.00 0.00 0.00 94 1016.0
20240221143517 40 0.0 0.9 0.00 0.00 0.00 94 1015.7
20240221142535 40 212 0.9 1.7 0.00 0.00 0.00 94 1015.7
20240221141533 40 0.0 0.9 0.00 0.00 0.00 93 1015.9
20240221140530 40 226 0.9 1.7 0.00 0.00 0.00 94 1015.8
20240221135529 40 104 0.0 1.7 0.00 0.00 0.00 93 1015.8
20240221134526 40 229 0.9 1.7 0.00 0.00 0.00 93 1015.9
20240221133523 40 0.0 1.7 0.00 0.00 0.00 94 1015.6
20240221132542 40 233 1.7 3.5 0.00 0.00 0.00 93 1015.4
20240221131519 40 137 0.0 1.7 0.00 0.00 0.00 93 1015.5
20240221130517 40 220 0.9 1.7 0.00 0.00 0.00 92 1015.5
20240221125535 40 258 0.9 1.7 0.00 0.00 0.00 92 1015.4
20240221124533 41 347 1.7 1.7 0.00 0.00 0.00 91 1015.3
20240221123530 41 0.0 1.7 0.00 0.00 0.00 91 1015.4
20240221122527 41 282 1.7 2.6 0.00 0.00 0.00 92 1015.4
20240221121525 41 256 0.9 1.7 0.00 0.00 0.00 92 1015.4
20240221120545 41 257 0.9 1.7 0.00 0.00 0.00 91 1015.4
20240221115520 41 316 1.7 1.7 0.00 0.00 0.00 91 1015.4